www.pogodaiklimat.ru
ПОГОДА в Сайна Лейк
Время
и дата
18:56 18.07
19:56 18.07
21:56 18.07
22:56 18.07
23:56 18.07
00:56 19.07
01:56 19.07
03:56 19.07
04:56 19.07
06:56 19.07
07:56 19.07
08:56 19.07
10:56 19.07
11:56 19.07
12:56 19.07
13:56 19.07
16:56 19.07
17:56 19.07
18:56 19.07
19:56 19.07
20:56 19.07
21:56 19.07
22:56 19.07
23:56 19.07
00:56 20.07
01:56 20.07
02:56 20.07
04:56 20.07
05:56 20.07
06:56 20.07
07:56 20.07
08:56 20.07
10:56 20.07
11:56 20.07
13:56 20.07
14:56 20.07
15:56 20.07
16:56 20.07
17:56 20.07
18:56 20.07
19:56 20.07
20:56 20.07
22:56 20.07
23:56 20.07
03:56 21.07
04:56 21.07
05:56 21.07
06:56 21.07
Ветер
(напр.,м/с)
Видим. Явления Облачность Т
(С)
Тd
(С)
f
(%)
Тe
(С)
Тes
(С)
Комфортность P
(гПа)
Po
(гПа)
Тmin
(С)
Tmax
(С)
R
(мм)
R24
(мм)
S
(см)
ЮЗ 6 16 км 2/0 3300 m
[Ac Ci]
+37.8 +7.8 16 +36 +36 очень
жарко
1010.3 932.2
ЮЗ 4 16 км 2/0 7500 m
[Ci]
+36.1 +6.7 16 +34 +34 очень
жарко
1011.2 933.1
Ю 4 16 км ясно +32.2 +5.6 19 +30 +30 жарко 1011.9 933.8 +32.2 +42.2
Ю 3 16 км ясно +32.2 +6.1 20 +30 +30 жарко 1011.9 933.8
Ю 5 16 км ясно +31.7 +6.1 20 +30 +30 жарко 1011.9 933.8
Ю 5 16 км ясно +31.7 +5.6 19 +30 +30 жарко 1011.6 933.4
ЮЗ 3 16 км ясно +28.9 +6.1 24 +28 +28 жарко 1011.7 933.4
ЮЗ 4 16 км ясно +28.3 +6.1 24 +27 +27 жарко 1012.3 934.1 +27.8 +32.8
ЮЗ 3 16 км ясно +27.2 +6.1 26 +26 +26 жарко 1012.8 934.4
ЮЗ 3 16 км ясно +31.1 +7.2 22 +30 +31 жарко 1013.9 935.3
ЮЗ 2 16 км ясно +33.3 +6.7 19 +31 +36 жарко 1013.9 935.6
штиль 0 16 км ясно +35.6 +8.3 19 +34 +45 очень
жарко
1013.7 935.3
З 2 16 км ясно +39.4 +7.2 14 +37 +54 опасность
солнечного
удара
1012.7 934.7
штиль 0 16 км ясно +40.6 +8.3 14 +38 +65 опасность
солнечного
удара
1011.9 933.8
Ю 6
{9}
16 км ясно +41.7 +8.3 14 +40 +48 очень
жарко
1011.2 933.1
ЮЗ 6
{9}
16 км ясно +42.8 +7.2 12 +40 +48 очень
жарко
1010.6 932.8
Ю 7
{12}
16 км ясно +41.1 +3.9 10 +38 +40 очень
жарко
1008.9 930.9
Ю 8
{13}
16 км ясно +40.6 +4.4 11 +38 +38 очень
жарко
1009.3 931.3
ЮЗ 7 16 км ясно +38.3 +6.1 14 +36 +36 очень
жарко
1009.8 931.9
Ю 5 16 км ясно +36.1 +6.1 16 +34 +34 очень
жарко
1010.6 932.5
Ю 6 16 км ясно +34.4 +5.0 16 +32 +32 жарко 1011.0 932.8
Ю 6 16 км ясно +33.3 +4.4 16 +31 +31 жарко 1011.1 933.1 +33.3 +42.2
Ю 7 16 км ясно +32.2 +4.4 17 +30 +30 жарко 1011.2 933.1
Ю 5 16 км ясно +31.1 +6.1 21 +29 +29 жарко 1011.4 933.4
Ю 3 16 км ясно +28.9 +6.7 25 +28 +28 жарко 1011.6 933.4
Ю 4 16 км ясно +27.8 +5.6 24 +27 +27 жарко 1011.4 933.1
ЮЗ 3 16 км ясно +26.7 +6.7 28 +26 +26 жарко 1011.9 933.8
штиль 0 16 км ясно +23.9 +6.1 32 +24 +24 комфорт 1012.6 934.1
З 2 16 км ясно +26.7 +6.1 27 +26 +26 жарко 1013.0 934.7
штиль 0 16 км ясно +28.9 +6.7 25 +28 +30 жарко 1013.5 935.0
ЮЗ 2 16 км ясно +32.8 +6.7 20 +31 +35 жарко 1013.4 935.0
16 км ясно +35.6 +7.2 17 +33 +45 жарко 1013.0 934.7
штиль 0 16 км ясно +39.4 +6.7 14 +37 +60 опасность
солнечного
удара
1012.1 934.1
В 5
{8}
16 км ясно +41.7 +5.0 11 +39 +49 очень
жарко
1011.4 933.4
Ю 5
{8}
16 км 2/0 3300 m
[Ac]
+43.3 +7.2 12 +41 +50 опасность
перегрева
1010.1 932.2
ЮВ 5
{9}
16 км 2/0 3300 m
[Ac]
+42.8 +5.6 11 +40 +47 очень
жарко
1009.2 931.3
ЮВ 5
{9}
16 км 2/0 3300 m
[Ac]
+42.8 +5.6 11 +40 +45 очень
жарко
1008.6 930.9 +37.2 +43.9
Ю 6
{12}
16 км 2/0 3600 m
[Ac]
+42.8 +5.6 11 +40 +43 очень
жарко
1008.3 930.3
Ю 7
{11}
16 км ясно +41.1 +5.0 11 +38 +39 очень
жарко
1008.3 930.3
Ю 5 16 км ясно +39.4 +5.0 12 +36 +37 очень
жарко
1008.7 930.6
Ю 5 16 км ясно +37.8 +5.6 14 +35 +35 очень
жарко
1008.9 930.9
Ю 6 16 км ясно +36.1 +7.2 17 +34 +34 очень
жарко
1009.1 931.3
Ю 5 16 км ясно +33.3 +7.8 21 +32 +32 жарко 1009.6 931.9
Ю 4 16 км ясно +32.8 +7.2 20 +31 +31 жарко 1009.4 931.6
Ю 5 16 км ясно +28.3 +6.7 25 +27 +27 жарко 1009.6 931.6 +27.8 +35.0
С 2 16 км ясно +25.6 +6.1 29 +25 +25 комфорт 1010.0 931.9
штиль 0 16 км ясно +28.3 +7.2 26 +28 +28 жарко 1010.2 932.2
штиль 0 16 км ясно +33.9 +8.3 21 +32 +34 жарко 1010.6 932.5
Местоположение метеостанции China Lake Naval Air Facility: широта 35.6864 долгота -117.6900 высота над уровнем моря 696 м.
В архиве по умолчанию представлена погода в Сайна Лейк за последние 1-2 суток. Обновление информации о фактической погоде в базе происходит ежечасно! Архивные данные за месяц целиком и за предыдущие месяцы Вы можете получить, выбрав интересующий диапазон дат из раскрывающегося списка и нажав кнопку "Ввод!".
Внимание! Архив погоды МЕТАР в базе сайта по станциям, не включенным в климатический монитор, хранится не более 60 дней. Нет смысла пытаться выбрать более раннюю дату.
*Определитесь, кто Вы:
Внимание! Время в таблицах - местное (без учета летнего времени). Для получения всемирного времени необходимо вычесть поправку, которая равна -8 ч.
Смотрите также архив погоды в соседних городах и на ближайших метеорологических станциях:
Партнеры нашего сайта:      
Пояснения к столбцам:
  • Ветер - указаны скорость ветра в м/с - средняя за 10 мин, порывы в срок и между сроками (в фигурных скобках) и направление, откуда дует ветер: С - северный,
  • СВ - северо-восточный, В - восточный, ЮВ - юго-восточный, Ю - южный, ЮЗ - юго-западный, З - западный, СЗ - северо-западный.
  • Видимость - горизонтальная дальность видимости в метрах или километрах. При видимости от 1 до 10 км при отсутствии осадков обычно наблюдается дымка, при ухудшении видимости до 1 км и менее - туман. В сухую погоду видимость может ухудшаться дымом, пылью или мглою.
  • Явления - указаны атмосферные явления, наблюдавшиеся в срок или в последний час перед сроком; фигурными скобками обозначены явления, наблюдавшиеся между сроками (за 1-3 часа до срока); квадратными скобками обозначены град или гололедные отложения с указанием их диаметра в мм.
  • Облачность - указаны через наклонную черту общая и нижняя облачность в баллах и высота нижней границы облаков в метрах; квадратными скобками обозначены формы облаков: Ci - перистые, Cs - перисто-слоистые, Cc - перисто-кучевые, Ac - высококучевые, As - высокослоистые, Sc - слоисто-кучевые, Ns - слоисто-дождевые, Cu - кучевые, Cb - кучево-дождевые. Подробнее классификацию облаков см. в Атласе облаков (PDF).
  • T - Температура воздуха - температура, измеренная на высоте 2 м над землей.
  • Td - Температура точки росы - температура, при понижении до которой содержащийся в воздухе водяной пар достигнет насыщения.
  • f - Относительная влажность воздуха - влажноcть воздуха, измеренная на высоте 2 м над землей.
  • Te - Эффективная температура - температура, которую ощущает одетый по сезону человек в тени. Характеристика душности погоды. При расчете учитывается влияние влажности воздуха и скорости ветра на теплоощущения человека.
  • Tes - Эффективная температура на солнце - температура, которую ощущает человек, с поправкой на солнечный нагрев. Характеристика знойности погоды. Зависит от высоты солнца над горизонтом, облачности и скорости ветра. Ночью, в пасмурную погоду, а также при ветре 12 м/с и более поправка равна нулю.
  • P - Атмосферное давление - приведенное к уровню моря атмосферное давление.
  • Po - Атмосферное давление - измеренное на уровне метеостанции атмосферное давление.
  • Tmin - Минимальная температура - минимум температуры воздуха на высоте 2 м над землей.
  • Tmax - Максимальная температура - максимум температуры воздуха на высоте 2 м над землей.
  • R - Количество осадков - Количество выпавших осадков за период времени, мм. При наведении курсора мыши на число - период времени, за который выпало указанное количество осадков.
  • R24 - Количество осадков - Количество выпавших осадков за 24 часа, мм.
  • S - Снежный покров - Высота снежного покрова, см. При наведении курсора мыши на число - состояние снежного покрова и степень покрытия местности в баллах.